{"data":{"norad_id":66978,"epoch":"2026-05-25T03:30:09.698112Z","epoch_age_seconds":59280,"freshness":"FRESH","line1":"1 66978U 25288V   26145.14594558  .00018269  00000+0  67179-3 0  9998","line2":"2 66978  43.0033 311.3905 0001149 257.8235 102.2488 15.27577989 26980","mean_motion":15.27577989,"eccentricity":0.0001149,"inclination_deg":43.0033,"raan_deg":311.3905,"arg_perigee_deg":257.8235,"mean_anomaly_deg":102.2488,"bstar":0.00067179,"rev_number":2698,"period_min":94.266872812345,"perigee_km":482.26676672939,"apogee_km":483.84346867804,"semimajor_km":6861.1921177037,"source":"CELESTRAK","updated_at":"2026-05-25T13:38:21.426128Z"}}